OpenBCM V1.08-5-g2f4a (Linux)

Packet Radio Mailbox

IZ3LSV

[San Dona' di P. JN]

 Login: GUEST





  
I0OJJ  > KEPS     06.10.25 02:25l 313 Lines 14849 Bytes #172 (0) @ AMSAT
BID : ORB25279.1
Subj: 2Line Orbital Elements 25279.AMSAT
Path: IZ3LSV<IK6IHL<IK7NXU<HB9ON<DK0WUE<PD0LPM<IR0AAB<I0OJJ
Sent: 251006/0021z @:I0OJJ.ITA.EU [Rome] obcm1.08-11-2-gbfe9
From: I0OJJ @ I0OJJ.ITA.EU (Gustavo)
To:   KEPS @ AMSAT
X-Info: This message was generated automatically


QST de W1STR

AMSAT Orbital Elements for Amateur Satellites in TLE Format
From Orbital Analysis Office
New England Sci-Tech STEM Education Center
Natick MA October 06, 2025
To all radio amateurs


These element sets describe the orbits of various satellites 
in use by the amateur radio community. For details see:
www.amsat.org/keplerian-elements-formats/

A daily update of element sets is available at:
www.amsat.org/tle/daily-bulletin.txt
or without bulletin text:
www.amsat.org/tle/dailytle.txt


AO-07
1 07530U 74089B   25278.01860455 -.00000019  00000-0  16974-3 0  9997
2 07530 101.9989 283.5518 0011905 258.2113 116.2087 12.53692156328541
UO-11
1 14781U 84021B   25278.42757220  .00002459  00000-0  26198-3 0  9998
2 14781  97.7689 242.5755 0006533 316.4369  43.6332 14.89791835219185
AO-27
1 22825U 93061C   25278.46930355  .00000258  00000-0  11563-3 0  9991
2 22825  98.7244 340.5424 0009354 123.9030 236.3044 14.30840402670579
FO-29
1 24278U 96046B   25278.38413796  .00000030  00000-0  65070-4 0  9998
2 24278  98.5546 156.6721 0350625  37.4547 325.0481 13.53256130438705
NOAA-15
1 25338U 98030A   25278.46754416  .00000308  00000-0  14426-3 0  9993
2 25338  98.5300 300.7345 0010572  20.3936 339.7665 14.27030121424963
GO-32
1 25397U 98043D   25278.42740956  .00000203  00000-0  10802-3 0  9990
2 25397  98.9850 260.0825 0000790 173.4569 186.6620 14.24348519415067
ISS
1 25544U 98067A   25278.49802050  .00011384  00000-0  20935-3 0  9991
2 25544  51.6327 120.3420 0000884 206.2421 153.8523 15.49697304532279
NO-44
1 26931U 01043C   25278.49105082  .00000385  00000-0  17505-3 0  9999
2 26931  67.0508 182.9641 0007080 274.0326  85.9967 14.31798750253985
SO-50
1 27607U 02058C   25278.18770718  .00002826  00000-0  35938-3 0  9999
2 27607  64.5536 197.4083 0067724 309.5377  49.9755 14.82033652226659
CO-55
1 27844U 03031E   25278.43994418  .00000673  00000-0  31164-3 0  9992
2 27844  98.6791 285.2146 0009157 199.0541 161.0297 14.24095214155410
CO-57
1 27848U 03031J   25278.51416959  .00000573  00000-0  27183-3 0  9999
2 27848  98.6821 285.2036 0008735 217.5696 142.4873 14.23415966155146
RS-22
1 27939U 03042A   25278.50202190  .00002107  00000-0  33852-3 0  9996
2 27939  98.3371  90.9030 0011409   2.3170  64.8931 14.72680997178057
CO-58
1 28895U 05043F   25278.38370282  .00003016  00000-0  49404-3 0  9995
2 28895  98.2660  64.3504 0013357 295.5571  64.4253 14.71479138 64267
CO-65
1 32785U 08021C   25278.48745141  .00008725  00000-0  60525-3 0  9997
2 32785  97.7979 250.7042 0009979 162.7543 197.4024 15.05802756946811
CO-66
1 32791U 08021J   25278.47076895  .00019427  00000-0  85036-3 0  9991
2 32791  97.7385 261.4548 0006270 109.2114 250.9800 15.22069723948402
RS-30
1 32953U 08025A   25278.46464447  .00000057  00000-0  33447-3 0  9996
2 32953  82.5043 153.8887 0019350 145.2881 214.9465 12.43168933788041
NOAA-19
1 33591U 09005A   25278.42467422  .00000126  00000-0  91057-4 0  9995
2 33591  98.9858 343.7264 0014252  34.8088 325.4013 14.13415280858495
SRMSAT
1 37841U 11058D   25278.10605255  .00000568  00000-0  16462-3 0  9997
2 37841  19.9709 163.3279 0011676 277.3746 208.6060 14.11476046721734
ZACUBE-1
1 39417U 13066B   25278.41590718  .00009319  00000-0  78025-3 0  9996
2 39417  97.7917 234.9613 0043404  20.6688 339.6277 14.97924203642548
Delfi-N3xt
1 39428U 13066N   25278.49282735  .00013917  00000-0  13520-2 0  9990
2 39428  97.8289 194.8991 0081102 333.2061  26.4978 14.90237132636623
GOMX-1
1 39430U 13066Q   25278.55309497  .00003455  00000-0  53482-3 0  9993
2 39430  97.6686 129.9377 0131323 174.0472 186.2333 14.68153284632536
LO-74
1 39440U 13066AA  25278.44033359  .00005578  00000-0  55062-3 0  9997
2 39440  97.8582 222.3011 0061663 149.4182 211.0655 14.90937694638990
AO-73
1 39444U 13066AE  25278.44564396  .00014353  00000-0  10169-2 0  9990
2 39444  97.7953 241.0103 0040033 351.4073   8.6463 15.04258557641291
DTUSAT-2
1 40030U 14033W   25278.45651476  .00011227  00000-0  69214-3 0  9998
2 40030  98.0686 256.1904 0009911  35.1393 325.0486 15.10094877614176
EO-80
1 40032U 14033Y   25278.47044583  .00011736  00000-0  72188-3 0  9996
2 40032  98.0564 255.6955 0007038 337.7220  22.3701 15.10187547614153
LILACSAT-2
1 40908U 15049K   25278.52715302  .00018049  00000-0  42451-3 0  9990
2 40908  97.5005 301.9169 0010632  96.4203 263.8254 15.41982007556388
IO-86
1 40931U 15052B   25151.18580175  .00001241  00000-0  78118-4 0  9996
2 40931   6.0006  24.0987 0012733 338.8432  21.1169 14.78805930523159
Horyu-4
1 41340U 16012D   25278.08981603  .00050749  00000-0  10930-2 0  9991
2 41340  30.9952  58.6146 0003745 202.7712 157.2769 15.43337472530916
Lapan A3
1 41603U 16040E   25278.53228267  .00005809  00000-0  19745-3 0  9995
2 41603  97.1421 278.6061 0010078 197.5607 162.5288 15.30784866515822
CAS-2T
1 41847U 16066G   25278.43957831  .00002963  00000-0  42682-3 0  9992
2 41847  98.4113 351.8447 0344952 181.6440 178.3646 14.43833106468023
CAS-4B
1 42759U 17034B   25278.47581324  .00713546  24246-3  12143-2 0  9990
2 42759  42.9965 327.6117 0018572  48.5010 311.7459 16.01410839461185
CAS-4A
1 42761U 17034D   25278.50213493  .01433023  14631-2  12321-2 0  9990
2 42761  42.9977 321.8503 0015040  54.9185 305.3106 16.12537767461233
TechnoSat
1 42829U 17042E   25278.48890338  .00005376  00000-0  40695-3 0  9994
2 42829  97.3976  81.6928 0017533 243.0308 116.9128 15.02585368448424
AO-91
1 43017U 17073E   25278.15788123  .00012336  00000-0  60027-3 0  9995
2 43017  97.5056 145.9895 0168161 124.9806 236.7342 15.06858276426909
S-Net D
1 43186U 18014G   25278.27045920  .00008672  00000-0  49235-3 0  9998
2 43186  97.5493 179.9752 0009040 167.2575 192.8886 15.13140299420167
S-Net B
1 43187U 18014H   25278.47583987  .00008658  00000-0  49176-3 0  9999
2 43187  97.5499 180.1561 0009842 163.0769 197.0792 15.13119695420197
S-Net A
1 43188U 18014J   25278.27042884  .00008571  00000-0  48650-3 0  9994
2 43188  97.5508 180.1188 0009704 163.9282 196.2258 15.13145524420165
S-Net C
1 43189U 18014K   25278.28015566  .00008871  00000-0  50371-3 0  9999
2 43189  97.5521 180.1626 0011364 158.8968 201.2734 15.13110180418711
Ten-Koh
1 43677U 18084G   25278.47026919  .00003746  00000-0  29690-3 0  9999
2 43677  98.0752  95.3997 0007771 219.5060 140.5598 15.01195689377922
PO-101
1 43678U 18084H   25278.50644159  .00003962  00000-0  33280-3 0  9996
2 43678  98.1058  99.2245 0007544 247.3617 112.6807 14.98920952378048
QO-100
1 43700U 18090A   25278.50051986  .00000146  00000-0  00000+0 0  9990
2 43700   0.0031 172.8114 0001667  54.4891 353.1307  1.00269846 25123
MinXSS-2
1 43758U 18099A   25278.44407450  .00028445  00000-0  97461-3 0  9999
2 43758  97.4906 345.0859 0011930 101.3867 258.8714 15.30097145374967
AO-95
1 43770U 18099N   25278.42726882  .00014276  00000-0  67101-3 0  9999
2 43770  97.4789 335.2926 0010961 155.1171 205.0595 15.19647982374434
SNUSat 2
1 43782U 18099AA  25278.14190132  .00013372  00000-0  68699-3 0  9993
2 43782  97.4476 330.7707 0013203 105.4724 254.7968 15.16532870374308
SnugLite
1 43784U 18099AC  25278.10187897  .00018455  00000-0  85827-3 0  9994
2 43784  97.4286 330.5625 0004769 105.4573 254.7189 15.20000899374474
ITASat 1
1 43786U 18099AE  25278.08766683  .00012515  00000-0  67927-3 0  9991
2 43786  97.4447 329.8640 0014598 154.7780 205.4168 15.14586336374233
EAGLET 1
1 43790U 18099AJ  25278.41161602  .00006709  00000-0  41414-3 0  9994
2 43790  97.4643 329.7124 0012911 139.3486 220.8710 15.10151834373848
ESEO
1 43792U 18099AL  25278.12200331  .00003353  00000-0  25237-3 0  9994
2 43792  97.4372 321.0815 0014254 119.6968 240.5679 15.03097619373473
JO-97
1 43803U 18099AX  25278.13049888  .00022681  00000-0  93914-3 0  9998
2 43803  97.4540 336.2844 0008387  95.2196 264.9998 15.23903775374651
Suomi 100
1 43804U 18099AY  25278.41586587  .00014284  00000-0  64635-3 0  9990
2 43804  97.4605 335.4919 0013156  97.8374 262.4355 15.20933500374593
ISAT
1 43879U 18111D   25278.51075081  .00038599  00000-0  11133-2 0  9999
2 43879  97.5875 195.8436 0010231 126.8830 233.3352 15.35552552371757
UWE-4
1 43880U 18111E   25278.31943825  .00027882  00000-0  95596-3 0  9998
2 43880  97.5821 193.2031 0012339 143.9337 216.2738 15.30075819371609
Sparrow
1 43881U 18111F   25278.25580723  .00042734  00000-0  11693-2 0  9994
2 43881  97.6043 198.9622 0007229 150.4580 209.7074 15.37203893371826
Prox-1
1 44339U 19036A   25278.52173166  .00016066  00000-0  19103-2 0  9992
2 44339  23.9977   5.6847 0006647 348.3023  11.7320 14.82715172335528
Taurus 1
1 44530U 19059C   25278.49028001  .00010303  00000-0  18216-2 0  9995
2 44530  98.6192  63.6871 0008960  31.2829 328.8906 14.67561714321220
Duchifat 3
1 44854U 19089C   25278.45860844  .00142695  00000-0  15346-2 0  9993
2 44854  36.9371 319.1607 0006799 163.8517 196.2462 15.62333052321348
TO-108
1 44881U 19093C   25278.48835182  .00001979  00000-0  23298-3 0  9993
2 44881  97.7834 351.6309 0013247 198.8198 161.2529 14.85868134313587
FloripaSat 1
1 44885U 19093G   25278.49491462  .00008859  00000-0  71723-3 0  9997
2 44885  97.8118   6.4162 0010157 178.2425 181.8836 14.99934883314413
RS-44
1 44909U 19096E   25278.37236270  .00000043  00000-0  12620-3 0  9996
2 44909  82.5219 149.0422 0218006  20.4163 340.5487 12.79744251269752
UPMSat 2
1 46276U 20061E   25278.19910399  .01124172  82782-3  10295-2 0  9996
2 46276  97.2278 358.5308 0006869 256.2548 103.7973 16.12627147284040
SALSAT
1 46495U 20068K   25278.50957348  .00011937  00000-0  48530-3 0  9993
2 46495  97.8727 262.2082 0013021 109.5260 250.7384 15.24636822276487
